Вернуться в каталог

FENGYUN 1C DEB

АктивенSSO
NORAD 30858·DEBRIS·🇨🇳 China

Запущен May 10, 1999 с Taiyuan Satellite Launch Center

Loading…

Ближайшие Пролёты (ближайшие 24 часа)

TLE

СвежийSource: Space-Track

Эпоха: Sep 14, 2026, 10:25 UTC

1 30858U 99025AWU 26257.43403192  .00000398  00000-0  21411-3 0  9999
2 30858  98.7674 317.0400 0030168  41.9870  91.0895 14.18149289  8871

Отслеживайте FENGYUN 1C DEB в реальном времени с AllMySat

Download on the App Store